Shreveport Downtown, LA

2:00 AM CST on December 13, 2017 (GMT -0600)
Shreveport Downtown

Weather History for KDTN - February, 2014

Change the Weather History Date:

Wednesday, February 5, 2014

  Actual Average (KBAD) Record (KBAD)
Temperature  
Mean Temperature 34 °F -  
Max Temperature 39 °F 55 °F 78 °F (2008)
Min Temperature 30 °F 37 °F 20 °F (2011)
Degree Days  
Heating Degree Days 30    
Moisture  
Dew Point 30 °F    
Average Humidity 80    
Maximum Humidity 100    
Minimum Humidity 55    
Precipitation  
Precipitation 0.01 in - - ()
Sea Level Pressure  
Sea Level Pressure 30.27 in    
Wind  
Wind Speed 6 mph (NNW)    
Max Wind Speed 14 mph    
Max Gust Speed 25 mph    
Visibility 8 miles    
Events Snow    
Averages and records for this station are not official NWS values.
T = Trace of Precipitation, MM = Missing Value Source: NWS Daily Summary

Daily Weather History Graph

Daily Weather History Graph

Search for Another Location

Airport or City:

Trip Planner

Search our weather history database for the weather conditions in past years. The results will help you decide how hot, cold, wet, or windy it might be!

Date:

Astronomy

Feb. 05, 2014 Rise Set
Actual Time 7:06 AM CST 5:51 PM CST
Civil Twilight 6:40 AM CST 6:17 PM CST
Nautical Twilight 6:11 AM CST 6:46 PM CST
Astronomical Twilight 5:42 AM CST 7:15 PM CST
Moon 10:45 AM CST (2/5) No Moon Set
Length of Visible Light 11h 36m
Length of Day
10h 45m
Waxing Crescent, 39% of the Moon is Illuminated
Feb 5
Waxing Crescent
Feb 6
First Quarter
Feb 14
Full
Feb 22
Last Quarter
Mar 1
New

Hourly Weather History & Observations

Time (CST) Temp. Windchill Dew Point Humidity Pressure Visibility Wind Dir Wind Speed Gust Speed Precip Events Conditions
12:01 AM 33.8 °F 29.6 °F 33.8 °F 100% 30.09 in 2.0 mi West 4.6 mph - N/A   Scattered Clouds
12:05 AM 33.8 °F 30.8 °F 33.8 °F 100% 30.09 in 3.0 mi West 3.5 mph - N/A   Mostly Cloudy
12:13 AM 33.8 °F - 33.8 °F 100% 30.09 in 3.0 mi Calm Calm - N/A   Mostly Cloudy
12:16 AM 33.8 °F - 33.8 °F 100% 30.09 in 1.8 mi Calm Calm - N/A   Mostly Cloudy
12:37 AM 35.6 °F - 33.8 °F 93% 30.09 in 0.8 mi Calm Calm - N/A   Overcast
12:45 AM 35.6 °F - 35.6 °F 100% 30.10 in 2.0 mi Calm Calm - N/A   Overcast
12:51 AM 35.6 °F - 35.6 °F 100% 30.10 in 3.0 mi Calm Calm - N/A   Overcast
12:52 AM 36.0 °F - 35.1 °F 97% 30.10 in 2.5 mi Calm Calm - N/A   Overcast
12:58 AM 35.6 °F 31.7 °F 35.6 °F 100% 30.10 in 0.8 mi WNW 4.6 mph - N/A   Overcast
1:49 AM 35.6 °F 30.7 °F 35.6 °F 100% 30.11 in 1.2 mi NW 5.8 mph - N/A   Overcast
1:53 AM 36.0 °F 32.1 °F 36.0 °F 100% 30.11 in 1.2 mi NW 4.6 mph - N/A   Overcast
2:09 AM 35.6 °F 32.8 °F 35.6 °F 100% 30.11 in 3.0 mi NW 3.5 mph - N/A   Mostly Cloudy
2:20 AM 35.6 °F 30.7 °F 35.6 °F 100% 30.12 in 6.0 mi NW 5.8 mph - N/A   Scattered Clouds
2:53 AM 37.0 °F 31.0 °F 36.0 °F 96% 30.13 in 10.0 mi NW 8.1 mph - N/A   Clear
3:12 AM 37.4 °F 32.1 °F 35.6 °F 93% 30.14 in 10.0 mi NW 6.9 mph - N/A   Mostly Cloudy
3:41 AM 37.4 °F 31.4 °F 35.6 °F 93% 30.16 in 10.0 mi WNW 8.1 mph - N/A   Scattered Clouds
3:53 AM 37.0 °F 33.3 °F 35.1 °F 93% 30.17 in 10.0 mi NW 4.6 mph - N/A   Partly Cloudy
4:53 AM 37.9 °F 32.1 °F 35.1 °F 89% 30.18 in 10.0 mi NW 8.1 mph - N/A   Mostly Cloudy
5:04 AM 37.4 °F 30.3 °F 33.8 °F 87% 30.19 in 10.0 mi NW 10.4 mph 16.1 mph N/A   Scattered Clouds
5:15 AM 39.2 °F 31.6 °F 33.8 °F 81% 30.19 in 10.0 mi NW 12.7 mph 18.4 mph N/A   Mostly Cloudy
5:53 AM 37.9 °F 30.0 °F 33.1 °F 83% 30.22 in 10.0 mi NNW 12.7 mph 23.0 mph N/A   Overcast
6:53 AM 36.0 °F 27.1 °F 28.9 °F 76% 30.26 in 10.0 mi NNW 13.8 mph 25.3 mph N/A   Overcast
7:53 AM 35.1 °F 26.9 °F 27.0 °F 72% 30.31 in 10.0 mi NNW 11.5 mph 20.7 mph N/A   Overcast
8:53 AM 36.0 °F 27.5 °F 27.0 °F 70% 30.35 in 10.0 mi NNW 12.7 mph 23.0 mph N/A   Overcast
9:53 AM 36.0 °F 28.0 °F 26.1 °F 67% 30.40 in 5.0 mi NNW 11.5 mph 17.3 mph 0.01 in Snow Light Snow
10:53 AM 35.1 °F 26.4 °F 25.0 °F 67% 30.43 in 10.0 mi NNW 12.7 mph 20.7 mph 0.00 in   Overcast
11:50 AM 37.4 °F 29.3 °F 24.8 °F 60% 30.41 in 10.0 mi North 12.7 mph 20.7 mph N/A   Scattered Clouds
11:53 AM 37.9 °F 29.6 °F 25.0 °F 60% 30.41 in 10.0 mi North 13.8 mph 20.7 mph N/A   Scattered Clouds
12:02 PM 37.4 °F 30.3 °F 24.8 °F 60% 30.41 in 10.0 mi NW 10.4 mph 20.7 mph N/A   Mostly Cloudy
12:53 PM 37.0 °F 29.8 °F 24.1 °F 59% 30.40 in 10.0 mi North 10.4 mph 19.6 mph N/A   Mostly Cloudy
1:53 PM 39.0 °F 31.4 °F 24.1 °F 55% 30.39 in 10.0 mi NNW 12.7 mph 19.6 mph N/A   Partly Cloudy
2:53 PM 39.0 °F 32.3 °F 24.1 °F 55% 30.39 in 10.0 mi North 10.4 mph 20.7 mph N/A   Scattered Clouds
3:53 PM 39.0 °F 32.8 °F 24.1 °F 55% 30.39 in 10.0 mi North 9.2 mph - N/A   Partly Cloudy
4:53 PM 37.9 °F 31.5 °F 24.1 °F 57% 30.40 in 10.0 mi North 9.2 mph - N/A   Scattered Clouds
5:53 PM 37.0 °F 32.4 °F 24.1 °F 59% 30.40 in 10.0 mi North 5.8 mph - N/A   Mostly Cloudy
6:53 PM 36.0 °F 29.6 °F 24.1 °F 62% 30.43 in 10.0 mi North 8.1 mph - N/A   Overcast
7:53 PM 34.0 °F 25.0 °F 23.0 °F 64% 30.43 in 10.0 mi NNE 12.7 mph 19.6 mph N/A   Mostly Cloudy
8:53 PM 32.0 °F 24.8 °F 21.9 °F 66% 30.45 in 10.0 mi NNE 8.1 mph - N/A   Mostly Cloudy
9:53 PM 30.9 °F 23.5 °F 21.9 °F 69% 30.48 in 10.0 mi NNE 8.1 mph - N/A   Clear
10:17 PM 30.2 °F 23.4 °F 23.0 °F 75% 30.47 in 10.0 mi NE 6.9 mph - N/A   Mostly Cloudy
10:53 PM 30.9 °F 23.5 °F 21.9 °F 69% 30.48 in 10.0 mi NNE 8.1 mph - N/A   Overcast
11:53 PM 30.0 °F 21.1 °F 21.9 °F 72% 30.45 in 10.0 mi North 10.4 mph - N/A   Overcast